Location: Bukvice
(48.8472°N, 14.6707°E)
Time: 20:22:42
(UTC+00:00)

Daily predictions for brighter satellites

Satellite Brightness Start Highest point End
(mag) Time Altitude Azimuth Time Altitude Azimuth Time Altitude Azimuth
Meteor 1-14 Rocket 4.2 17:22:51 10° S 17:28:18 67° E 17:33:51 10° NNE
USA 59 Rocket 2.4 17:24:51 10° WNW 17:28:21 27° SW 17:32:52 10° S
COSMOS 2428 3.5 17:23:13 10° SW 17:28:50 58° WNW 17:34:31 10° NNE
Cosmos 1515 Rocket 3.7 17:26:43 10° N 17:30:59 52° ENE 17:35:16 10° SSE
ATLAS CENTAUR R/B 1.3 17:27:58 10° SW 17:31:32 76° NW 17:35:19 10° NE
ADEOS 3.9 17:28:49 10° SE 17:33:48 46° ENE 17:38:46 10° N
CZ-4B R/B 4.2 17:33:14 10° ESE 17:37:38 27° ENE 17:42:00 10° N
Cosmos 1356 Rocket 3.5 17:35:45 10° NNW 17:39:57 86° WSW 17:44:05 10° S
YAOGAN 11 4.3 17:36:07 10° NNE 17:40:22 76° WNW 17:44:37 10° SSW
Meteor 2-17 Rocket 4.4 17:35:27 10° N 17:41:33 80° E 17:47:38 10° SSE
OPS 6432 4.1 17:40:47 10° NW 17:43:57 74° NE 17:47:07 10° SE
Cosmos 2219 Rocket 4.4 17:39:41 10° W 17:44:22 26° NW 17:49:04 10° NNE
Cosmos 1500 Rocket 4.3 17:42:13 10° SSE 17:46:02 31° E 17:49:51 10° NNE
Nadezhda 4 Rocket 4.1 17:40:28 10° N 17:46:41 58° ENE 17:52:54 10° SSE
NOSS 3-3 (C) 3.8 17:42:12 10° SSW 17:47:29 63° SE 17:53:44 10° NE
Cosmos 1674 4.4 17:44:31 10° NNW 17:47:30 32° W 17:50:27 10° SSW
YAOGAN 1 2.8 17:43:23 10° S 17:47:39 73° WSW 17:51:57 10° NNW
CZ-4B R/B 3.4 17:45:05 10° SSE 17:49:47 60° ENE 17:54:38 10° N
Cosmos 2237 Rocket 2.3 17:44:32 10° SSW 17:50:10 87° WNW 17:55:51 10° NNE
ARGOS Delta rocket 4.1 17:46:09 10° SE 17:50:46 47° ENE 17:55:11 10° N
Cosmos 1766 Rocket 4.3 17:46:27 10° SSW 17:50:47 59° WNW 17:55:10 10° N
Cosmos 1570 Rocket 4.0 17:45:45 10° SSW 17:51:00 79° ESE 17:56:16 10° NNE
Cosmos 1125 Rocket 3.9 17:46:29 10° NNW 17:51:40 70° WSW 17:56:50 10° SSE
USA 267 3.9 17:46:38 10° ENE 17:53:02 56° NNW 17:59:25 10° W
In-Cosmos 22 4.2 17:47:27 10° N 17:53:07 77° ENE 17:58:37 10° SSE
Meteor 2-10 4.2 17:48:04 10° S 17:53:40 64° E 17:59:21 10° NNE
USA 186 3.0 17:52:09 11° ESE 17:54:36 24° ENE 17:57:15 10° NNE
SJ-6B 2.7 17:51:34 10° SSE 17:55:05 56° ENE 17:58:37 10° N
Cosmos 1943 Rocket 2.9 17:49:57 10° NW 17:55:22 57° WSW 18:00:46 10° S
Okean 3 Rocket 3.5 17:51:28 10° S 17:55:54 85° ESE 18:00:20 10° N
Cosmos 1743 Rocket 4.3 17:52:15 10° SSE 17:56:00 30° E 17:59:48 10° NNE
Iridium 4 Rocket 4.1 17:52:05 10° NNW 17:56:08 50° W 18:00:17 10° SSW
Cosmos 2150 Rocket 3.9 17:51:10 10° NNW 17:56:20 71° ENE 18:01:27 10° SSE
Cosmos 839 Rocket 4.5 17:48:09 10° SSW 17:56:40 81° SE 18:03:29 10° NE
NOSS 3-3 (A) 3.7 17:52:11 10° SSW 17:57:33 77° SE 18:03:56 10° NE
Cosmos 1408 Rocket 3.7 17:53:41 10° S 17:57:58 53° E 18:02:18 10° NNE
SL-08 R/B 3.5 17:53:33 10° NNE 17:58:23 54° E 18:03:11 10° S
Cosmos 2298 Rocket 4.0 17:54:05 10° NNW 17:59:25 76° ENE 18:04:43 10° SSE
SeaSat 1 2.4 17:56:24 10° NNE 18:01:21 87° SE 18:06:16 10° SSW
Helios 1A 3.2 17:58:18 10° NNE 18:02:11 42° E 18:06:03 10° S
Cosmos 158 Rocket 3.8 17:57:24 10° SSW 18:02:16 88° ESE 18:07:11 10° NNE
Cosmos 1092 Rocket 4.5 17:56:32 10° N 18:02:31 42° ENE 18:08:29 10° SE
USA 32 4.4 17:58:49 10° N 18:03:48 41° ENE 18:08:44 10° SSE
GEOS 3 Rocket 4.4 18:00:53 13° E 18:05:02 38° NE 18:09:47 10° NNW
Sich 1 3.3 18:01:05 10° SSE 18:05:10 44° E 18:09:18 10° NNE
Okean O Rocket 2.8 18:03:42 15° ESE 18:06:16 24° ENE 18:09:50 10° N
COSMO-SKYMED 1 4.5 18:03:02 10° N 18:06:59 34° WNW 18:10:55 10° SW
CARTOSAT-1 4.0 18:03:18 10° SE 18:07:16 40° ENE 18:11:16 10° N
Tiangong -0.1 18:06:24 10° SSW 18:08:15 15° SSE 18:09:05 14° SE
Cosmos 1656 Rocket 3.8 18:03:41 10° NNW 18:09:15 57° ENE 18:14:09 13° SE
Cosmos 1607 4.1 18:04:16 10° SSW 18:10:35 60° ESE 18:16:54 10° NE
Cosmos 2297 3.9 18:05:10 10° NNW 18:10:42 52° NE 18:15:21 15° SE
Aureole 3 Rocket 3.5 18:06:11 10° SSE 18:11:30 46° E 18:15:25 10° NNE
Helios 1B rocket 4.2 18:11:49 10° SSW 18:15:17 32° W 18:18:46 10° NNW
CZ-4 R/B 1.2 18:11:29 10° SSE 18:15:19 68° ENE 18:19:16 10° N
Cosmos 2369 Rocket 2.6 18:10:00 10° NNW 18:15:32 48° NE 18:19:41 17° ESE
SPOT 5 4.2 18:14:53 16° E 18:16:10 18° ENE 18:19:07 10° NNE
PAYLOAD B 4.3 18:10:45 10° SSE 18:16:18 67° ENE 18:21:52 10° N
Meteor 1-23 Rocket 4.2 18:12:28 10° N 18:18:08 69° ENE 18:23:49 10° SSE
Cosmos 1464 Rocket 4.1 18:11:54 10° S 18:18:17 87° WNW 18:24:42 10° N
ARIANE 6 FM1 Upper Stage 3.8 18:17:02 10° S 18:20:30 25° ESE 18:21:45 21° E
Cosmos 1634 Rocket 4.4 18:15:34 10° SSE 18:21:20 39° E 18:27:08 10° NNE
NOSS 3-4 (A) 3.8 18:15:31 10° NW 18:22:15 75° NE 18:28:31 17° SE
NOSS 3-4 (C) 3.8 18:15:37 10° NW 18:22:21 74° NE 18:28:35 17° SE
Terra 3.7 18:22:16 13° ENE 18:23:07 13° NE 18:25:15 10° NNE
CZ-4B R/B 2.8 18:21:03 10° SSE 18:25:04 82° ENE 18:29:17 10° NNW
Cosmos 1805 Rocket 3.4 18:24:39 10° S 18:28:57 73° E 18:33:19 10° NNE
Cosmos 2228 Rocket 3.7 18:26:18 10° N 18:30:36 39° ENE 18:32:38 25° SE
Cosmos 1441 Rocket 3.4 18:29:41 20° SSE 18:31:42 38° E 18:35:02 10° NNE
Cosmos 1633 Rocket 4.2 18:32:47 24° E 18:32:47 24° E 18:36:07 10° NE
Cosmos 2084 Rocket 3.8 18:30:20 10° SSW 18:34:24 41° SE 18:37:02 19° ENE
Resurs 01 Rocket 1.5 18:30:24 12° SSE 18:34:27 75° ENE 18:38:53 10° N
Cosmos 1975 2.8 18:31:03 10° S 18:34:49 52° E 18:38:37 10° NNE
Okean-O 3.5 18:39:41 28° E 18:40:34 30° ENE 18:44:26 10° N
Feng Yun 1-1 Rocket 4.3 18:35:14 11° SSE 18:40:51 76° ENE 18:46:48 10° NNW
Cosmos 1627 Rocket 4.4 18:36:37 10° N 18:42:53 78° E 18:49:03 10° SSE
Cosmos 1862 Rocket 4.0 18:39:06 10° N 18:43:21 42° ENE 18:44:35 34° ESE
Cosmos 2034 Rocket 4.1 18:39:16 10° SSW 18:45:28 81° W 18:51:40 10° N
Cosmos 1707 Rocket 3.7 18:42:11 10° N 18:46:31 50° ENE 18:47:57 35° SE
ERS-1 Rocket 4.1 18:46:18 24° ENE 18:47:05 25° ENE 18:51:07 10° N
USA 306 3.0 18:44:43 10° WNW 18:47:57 45° NNE 18:48:52 36° ENE
ISS -3.2 18:45:04 10° WNW 18:48:21 51° N 18:49:13 39° NE
Cosmos 1666 Rocket 3.8 18:51:16 40° ESE 18:51:55 43° E 18:56:02 10° NNE
Cosmos 2279 Rocket 4.2 18:48:40 19° SSE 18:52:51 45° E 18:58:42 10° NNE
ACS3 Solar Sail 1.9 18:48:36 17° SSE 18:53:43 72° ENE 19:00:07 10° N
Meteor 2-12 Rocket 4.4 18:47:45 10° N 18:53:58 80° E 18:59:03 16° SSE
SL-16 R/B 2.2 18:50:01 10° SSW 18:55:42 86° WNW 19:01:25 10° NNE
Cosmos 1805 4.2 18:54:34 10° SSW 18:58:06 45° WNW 19:01:38 10° N
IKONOS-2 4.4 18:59:31 10° NNE 19:03:39 61° ESE 19:04:31 48° SSE
Okean 3 3.3 19:03:50 10° N 19:08:01 69° E 19:08:31 61° SE
Cosmos 1943 3.4 19:07:43 40° SE 19:08:36 43° ESE 19:13:56 10° NE
ATLAS CENTAUR R/B 4.0 19:07:13 10° WNW 19:09:34 16° NNW 19:11:58 10° N
Cosmos 783 Rocket 4.5 19:06:17 10° SSW 19:11:33 83° WNW 19:16:49 10° NNE
SL-24 R/B 4.2 19:09:51 38° SSE 19:11:42 77° E 19:16:35 10° N
ATLAS 2AS CENTAUR R/B 4.2 19:06:40 10° NW 19:12:25 26° NNE 19:16:25 16° ENE
PSLV R/B 3.8 19:14:50 55° NNE 19:14:50 55° NNE 19:17:42 10° N
CSL-04 Rocket 4.0 19:11:58 17° S 19:16:01 61° WSW 19:21:17 10° NNW
Ariane Rocket 4.2 19:17:37 27° ENE 19:17:37 27° ENE 19:21:35 10° N
CZ-4B R/B 3.8 19:13:15 13° S 19:17:54 54° W 19:23:08 10° NNW
MOS 1 4.2 19:17:17 42° SE 19:19:14 74° ENE 19:24:55 10° NNW
Cosmos 2263 4.2 19:13:48 10° NNW 19:19:32 83° WSW 19:21:32 42° SSE
IRS-1C Rocket 4.3 19:23:12 47° E 19:23:33 48° ENE 19:28:36 10° N
USA 186 4.2 19:24:40 16° SW 19:26:14 22° W 19:28:50 10° NW
USA 267 4.1 19:31:14 20° ENE 19:35:25 44° N 19:41:34 10° WNW
Cosmos 1766 4.1 19:41:42 45° NW 19:41:42 45° NW 19:44:50 10° N
Cosmos 2266 Rocket 4.0 19:35:41 10° N 19:41:59 66° ENE 19:42:48 60° ESE
Okean O Rocket 2.6 19:41:03 34° SW 19:42:18 43° W 19:46:32 10° NNW
GEOS 3 Rocket 3.9 19:41:58 50° SSW 19:42:54 58° SW 19:48:01 10° NW
CZ-4 R/B 4.3 19:48:42 10° WSW 19:50:18 12° W 19:51:55 10° WNW
SL-24 R/B - RUBIN 2 4.4 19:47:23 10° NW 19:53:46 64° NE 19:54:07 63° ENE
SPOT 5 3.1 19:54:01 59° W 19:54:01 59° W 19:58:07 10° NNW
Cosmos 2369 Rocket 3.6 19:54:20 10° NW 19:59:23 33° WSW 20:01:29 26° SW
ARIANE 6 FM1 Upper Stage 4.0 19:55:21 10° WSW 19:58:11 37° W 19:58:11 37° W
Terra 2.3 20:00:58 54° N 20:00:58 54° N 20:04:40 10° NNW
Cosmos 2344 4.3 19:54:23 10° NW 20:02:03 52° NE 20:05:08 39° E
BREEZE-M DEB (TANK) 3.4 19:48:16 10° WNW 20:03:07 81° SSW 20:03:29 76° SSE
Aureole 3 4.2 19:59:16 10° NNW 20:03:53 66° W 20:03:54 66° W
Okean 1-7 4.1 20:04:10 10° NNW 20:07:26 42° NW 20:07:26 42° NW
Cosmos 1633 Rocket 4.3 20:09:43 37° W 20:10:05 38° WNW 20:14:13 10° N
Resurs 01 Rocket 4.4 20:09:12 10° WSW 20:11:24 13° W 20:13:36 10° WNW
Cosmos 1538 Rocket 4.3 20:13:37 64° W 20:13:51 65° WNW 20:19:12 10° NNE
Okean-O 4.1 20:17:08 33° W 20:17:08 33° W 20:20:53 10° NNW
Cosmos 1656 4.5 20:11:43 10° NNW 20:16:15 41° NNE 20:16:15 41° NNE
Meteor 1-24 Rocket 4.4 20:12:05 10° N 20:16:38 48° NNE 20:16:38 48° NNE
Cosmos 1980 Rocket 4.3 20:15:28 10° N 20:18:42 15° NNE 20:19:05 15° NE
MOS 1 Rocket 4.3 20:20:11 47° WSW 20:20:22 47° W 20:25:34 10° NNW
Spot 2 Rocket 4.1 20:23:41 52° NNW 20:23:41 52° NNW 20:27:33 10° NNW
ISS -0.4 20:21:55 10° WNW 20:22:09 12° WNW 20:22:09 12° WNW
ERS-1 Rocket 3.7 20:26:14 49° WNW 20:26:14 49° WNW 20:30:27 10° NNW
ACS3 Solar Sail 3.8 20:33:51 12° SW 20:38:18 23° W 20:43:18 10° NW
Meteor 2-5 Rocket 4.4 20:40:06 10° NNW 20:44:37 54° NNW 20:44:37 54° NNW
Cosmos 1943 4.5 20:49:01 18° WSW 20:52:43 38° NW 20:57:59 10° NNE
Ariane Rocket 4.4 20:57:45 35° NW 20:57:45 35° NW 21:00:58 10° NNW
Cosmos 1697 Rocket 4.1 20:55:00 10° NNW 20:58:31 32° N 20:58:31 32° N
ATLAS 2AS CENTAUR R/B 3.2 20:58:00 10° NW 21:03:49 53° N 21:03:49 53° N
USA 267 3.7 21:18:35 56° N 21:18:35 56° N 21:24:18 10° NW
SL-16 R/B 4.4 21:49:58 10° N 21:53:04 18° NNE 21:53:04 18° NNE
Cosmos 1980 Rocket 4.1 21:58:26 10° NNW 22:00:49 25° NNW 22:00:49 25° NNW
Cosmos 2344 4.4 22:08:37 10° NW 22:15:07 51° W 22:15:07 51° W
Cosmos 2360 Rocket 4.4 22:47:40 10° N 22:50:34 21° NNE 22:50:34 21° NNE
Cosmos 2219 Rocket 4.5 23:00:29 10° N 23:04:14 18° NE 23:04:14 18° NE
Cosmos 2322 Rocket 4.3 23:04:43 10° NNW 23:07:17 23° N 23:07:17 23° N
Cosmos 2082 Rocket 4.3 23:26:46 23° NNE 23:26:46 23° NNE 23:28:45 10° NNE
SL-16 R/B 4.4 23:33:19 10° NNW 23:34:52 19° NNW 23:34:52 19° NNW
